| time (UTC) | temp F | wind direction | speed MPH | gust MPH | rain 1hr in | rain 24hr in | rain mn in | humidity % | barometer mb |
| 20260903043058 | 68 | 0 | 0.0 | 0.0 | 0.00 | 0.00 | 0.00 | 93 | 1024.3 |
| 20260903041600 | 68 | 0 | 0.0 | 0.0 | 0.00 | 0.00 | 0.00 | 92 | 1024.3 |
| 20260903040103 | 68 | 0 | 0.0 | 1.0 | 0.00 | 0.00 | 0.00 | 92 | 1024.4 |
| 20260903034602 | 68 | 0 | 0.0 | 0.0 | 0.00 | 0.00 | 0.00 | 92 | 1024.5 |
| 20260903033058 | 68 | 0 | 0.0 | 0.0 | 0.00 | 0.00 | 0.00 | 92 | 1024.5 |
| 20260903031558 | 69 | 0 | 0.0 | 2.0 | 0.00 | 0.00 | 0.00 | 91 | 1024.7 |
| 20260903030057 | 69 | 0 | 0.0 | 1.0 | 0.00 | 0.00 | 0.00 | 91 | 1024.7 |
| 20260903024600 | 69 | 0 | 0.0 | 1.0 | 0.00 | 0.00 | 0.00 | 90 | 1024.7 |
| 20260903023105 | 69 | 0 | 0.0 | 1.0 | 0.00 | 0.00 | 0.00 | 90 | 1024.9 |
| 20260903021611 | 70 | 0 | 0.0 | 1.0 | 0.00 | 0.00 | 0.00 | 88 | 1024.7 |
| 20260903014607 | 71 | 0 | 0.0 | 0.0 | 0.00 | 0.00 | 0.00 | 87 | 1024.5 |
| 20260903013109 | 71 | 0 | 0.0 | 2.0 | 0.00 | 0.00 | 0.00 | 86 | 1024.3 |
| 20260903011607 | 71 | 74 | 1.0 | 2.0 | 0.00 | 0.00 | 0.00 | 84 | 1024.1 |
| 20260903010056 | 72 | 0 | 0.0 | 0.0 | 0.00 | 0.00 | 0.00 | 84 | 1023.9 |
| 20260903004600 | 72 | 0 | 0.0 | 0.0 | 0.00 | 0.00 | 0.00 | 84 | 1023.7 |
| 20260903003059 | 73 | 0 | 0.0 | 2.0 | 0.00 | 0.00 | 0.00 | 83 | 1023.5 |
| 20260903001605 | 74 | 74 | 0.0 | 2.0 | 0.00 | 0.00 | 0.00 | 82 | 1023.4 |
| 20260903000058 | 75 | 74 | 0.0 | 0.0 | 0.00 | 0.00 | 0.00 | 82 | 1023.3 |
| 20260902234613 | 76 | 0 | 0.0 | 2.0 | 0.00 | 0.00 | 0.00 | 80 | 1023.2 |
| 20260902233057 | 78 | 74 | 1.0 | 2.0 | 0.00 | 0.00 | 0.00 | 78 | 1023.4 |
| 20260902231612 | 80 | 0 | 0.0 | 2.0 | 0.00 | 0.00 | 0.00 | 73 | 1023.2 |
| 20260902230108 | 82 | 0 | 0.0 | 3.0 | 0.00 | 0.00 | 0.00 | 70 | 1023.2 |
| 20260902224555 | 83 | 0 | 0.0 | 4.0 | 0.00 | 0.00 | 0.00 | 68 | 1023.4 |
| 20260902223100 | 84 | 331 | 0.0 | 5.0 | 0.00 | 0.00 | 0.00 | 67 | 1023.4 |
| 20260902221559 | 85 | 0 | 1.0 | 3.0 | 0.00 | 0.00 | 0.00 | 61 | 1023.4 |
| 20260902214615 | 87 | 53 | 0.0 | 4.0 | 0.00 | 0.00 | 0.00 | 57 | 1023.6 |
| 20260902213100 | 88 | 19 | 0.0 | 3.0 | 0.00 | 0.00 | 0.00 | 59 | 1023.5 |
| 20260902211605 | 87 | 123 | 0.0 | 2.0 | 0.00 | 0.00 | 0.00 | 62 | 1023.6 |
| 20260902204603 | 86 | 23 | 1.0 | 3.0 | 0.00 | 0.00 | 0.00 | 59 | 1023.6 |
| 20260902203058 | 87 | 27 | 0.0 | 4.0 | 0.00 | 0.00 | 0.00 | 63 | 1023.5 |
| 20260902201600 | 87 | 0 | 0.0 | 3.0 | 0.00 | 0.00 | 0.00 | 64 | 1023.6 |
| 20260902200055 | 86 | 270 | 1.0 | 6.0 | 0.00 | 0.00 | 0.00 | 61 | 1023.7 |
| 20260902194554 | 84 | 138 | 0.0 | 3.0 | 0.00 | 0.00 | 0.00 | 68 | 1024.0 |
| 20260902193100 | 83 | 0 | 0.0 | 3.0 | 0.00 | 0.00 | 0.00 | 69 | 1024.1 |
| 20260902191557 | 86 | 0 | 0.0 | 5.0 | 0.00 | 0.00 | 0.00 | 63 | 1024.3 |
| 20260902190057 | 86 | 209 | 2.0 | 5.0 | 0.00 | 0.00 | 0.00 | 66 | 1024.3 |
| 20260902184557 | 84 | 148 | 1.0 | 5.0 | 0.00 | 0.00 | 0.00 | 67 | 1024.5 |
| 20260902183105 | 84 | 0 | 0.0 | 3.0 | 0.00 | 0.00 | 0.00 | 71 | 1024.6 |
| 20260902181602 | 85 | 271 | 1.0 | 4.0 | 0.00 | 0.00 | 0.00 | 61 | 1024.8 |
| 20260902180104 | 86 | 346 | 1.0 | 4.0 | 0.00 | 0.00 | 0.00 | 67 | 1024.7 |
| 20260902174603 | 84 | 63 | 2.0 | 4.0 | 0.00 | 0.00 | 0.00 | 62 | 1024.8 |
| 20260902173105 | 84 | 234 | 2.0 | 7.0 | 0.00 | 0.00 | 0.00 | 66 | 1024.9 |
| 20260902171605 | 84 | 211 | 2.0 | 5.0 | 0.00 | 0.00 | 0.00 | 64 | 1025.2 |
| 20260902164602 | 84 | 126 | 1.0 | 5.0 | 0.00 | 0.00 | 0.00 | 67 | 1025.8 |
| 20260902163057 | 83 | 0 | 2.0 | 7.0 | 0.00 | 0.00 | 0.00 | 69 | 1025.9 |
| 20260902161559 | 82 | 127 | 3.0 | 5.0 | 0.00 | 0.00 | 0.00 | 69 | 1026.1 |
| 20260902160059 | 81 | 247 | 1.0 | 5.0 | 0.00 | 0.00 | 0.00 | 77 | 1026.2 |
| 20260902154556 | 80 | 256 | 2.0 | 4.0 | 0.00 | 0.00 | 0.00 | 73 | 1026.2 |
| 20260902153057 | 79 | 267 | 1.0 | 4.0 | 0.00 | 0.00 | 0.00 | 76 | 1026.3 |
| 20260902151554 | 77 | 267 | 1.0 | 4.0 | 0.00 | 0.00 | 0.00 | 78 | 1026.2 |
| 20260902150100 | 77 | 267 | 0.0 | 4.0 | 0.00 | 0.00 | 0.00 | 84 | 1026.1 |
| 20260902144603 | 74 | 294 | 0.0 | 3.0 | 0.00 | 0.00 | 0.00 | 83 | 1026.1 |
| 20260902143057 | 73 | 294 | 1.0 | 3.0 | 0.00 | 0.00 | 0.00 | 87 | 1026.2 |
| 20260902141549 | 71 | 309 | 0.0 | 3.0 | 0.00 | 0.00 | 0.00 | 91 | 1026.2 |
| 20260902140058 | 69 | 313 | 1.0 | 3.0 | 0.00 | 0.00 | 0.00 | 94 | 1026.1 |
| 20260902134600 | 68 | 313 | 0.0 | 0.0 | 0.00 | 0.00 | 0.00 | 97 | 1026.2 |
| 20260902133059 | 67 | 0 | 0.0 | 0.0 | 0.00 | 0.00 | 0.00 | 98 | 1026.3 |
| 20260902131552 | 65 | 0 | 0.0 | 0.0 | 0.00 | 0.00 | 0.00 | 98 | 1026.3 |
| 20260902130057 | 65 | 0 | 0.0 | 0.0 | 0.00 | 0.00 | 0.00 | 98 | 1026.3 |
| 20260902124603 | 63 | 0 | 0.0 | 0.0 | 0.00 | 0.00 | 0.00 | 98 | 1026.2 |
| 20260902123059 | 62 | 0 | 0.0 | 0.0 | 0.00 | 0.00 | 0.00 | 98 | 1026.3 |
| 20260902121611 | 62 | 0 | 0.0 | 0.0 | 0.00 | 0.00 | 0.00 | 97 | 1026.3 |
| 20260902120108 | 62 | 0 | 0.0 | 0.0 | 0.00 | 0.00 | 0.00 | 98 | 1026.1 |
| 20260902114616 | 62 | 0 | 0.0 | 0.0 | 0.00 | 0.01 | 0.00 | 98 | 1026.0 |
| 20260902113100 | 61 | 0 | 0.0 | 0.0 | 0.00 | 0.01 | 0.00 | 97 | 1025.8 |
| 20260902111600 | 61 | 0 | 0.0 | 0.0 | 0.00 | 0.01 | 0.00 | 97 | 1025.7 |
| 20260902110100 | 61 | 0 | 0.0 | 0.0 | 0.00 | 0.01 | 0.00 | 97 | 1025.8 |
| 20260902104556 | 62 | 0 | 0.0 | 0.0 | 0.00 | 0.01 | 0.00 | 97 | 1025.7 |
| 20260902103116 | 62 | 0 | 0.0 | 0.0 | 0.00 | 0.01 | 0.00 | 97 | 1025.8 |
| 20260902101551 | 62 | 0 | 0.0 | 0.0 | 0.00 | 0.01 | 0.00 | 97 | 1025.6 |
| 20260902100100 | 62 | 0 | 0.0 | 0.0 | 0.00 | 0.01 | 0.00 | 97 | 1025.6 |
| 20260902094559 | 63 | 0 | 0.0 | 0.0 | 0.00 | 0.01 | 0.00 | 97 | 1025.3 |
| 20260902093103 | 63 | 0 | 0.0 | 0.0 | 0.00 | 0.01 | 0.00 | 97 | 1025.2 |
| 20260902091558 | 63 | 0 | 0.0 | 0.0 | 0.00 | 0.01 | 0.00 | 97 | 1025.0 |
| 20260902090101 | 64 | 0 | 0.0 | 0.0 | 0.00 | 0.01 | 0.00 | 97 | 1024.8 |
| 20260902084556 | 63 | 0 | 0.0 | 0.0 | 0.00 | 0.01 | 0.00 | 97 | 1025.0 |
| 20260902083055 | 63 | 0 | 0.0 | 0.0 | 0.00 | 0.01 | 0.00 | 96 | 1024.9 |
| 20260902081601 | 64 | 0 | 0.0 | 0.0 | 0.00 | 0.01 | 0.00 | 97 | 1024.8 |
| 20260902080100 | 64 | 0 | 0.0 | 0.0 | 0.00 | 0.01 | 0.00 | 96 | 1024.9 |
| 20260902074611 | 64 | 0 | 0.0 | 0.0 | 0.00 | 0.01 | 0.00 | 96 | 1024.8 |
| 20260902073058 | 64 | 0 | 0.0 | 0.0 | 0.00 | 0.01 | 0.00 | 96 | 1024.8 |
| 20260902071550 | 64 | 0 | 0.0 | 0.0 | 0.00 | 0.01 | 0.00 | 96 | 1024.9 |
| 20260902064602 | 65 | 0 | 0.0 | 0.0 | 0.00 | 0.01 | 0.00 | 96 | 1024.9 |
| 20260902063056 | 65 | 0 | 0.0 | 0.0 | 0.00 | 0.01 | 0.00 | 96 | 1025.1 |
| 20260902061603 | 65 | 0 | 0.0 | 0.0 | 0.00 | 0.01 | 0.00 | 96 | 1025.1 |
| 20260902060107 | 65 | 0 | 0.0 | 0.0 | 0.00 | 0.01 | 0.00 | 95 | 1025.3 |
| 20260902054559 | 65 | 0 | 0.0 | 0.0 | 0.00 | 0.01 | 0.00 | 95 | 1025.4 |
| 20260902053103 | 66 | 0 | 0.0 | 0.0 | 0.00 | 0.01 | 0.00 | 95 | 1025.2 |
| 20260902051557 | 66 | 0 | 0.0 | 0.0 | 0.00 | 0.01 | 0.00 | 94 | 1025.2 |
| 20260902044637 | 66 | 0 | 0.0 | 0.0 | 0.00 | 0.01 | 0.00 | 93 | 1025.0 |